Time,TemperatureF,DewpointF,PressureIn,WindDirection,WindDirectionDegrees,WindSpeedMPH,WindSpeedGustMPH,Humidity,HourlyPrecipIn,Conditions,Clouds,dailyrainin,SoftwareType,DateUTC
2013-09-03 00:05:00,73.0,54.7,30.20,SE,135,4.9,4.9,53,0.00,,,0.00,WUHU21636XXSP,2013-09-03 05:05:00,
2013-09-03 00:15:00,72.7,54.3,30.20,SSE,157,5.1,8.9,53,0.00,,,0.00,WUHU21636XXSP,2013-09-03 05:15:00,
2013-09-03 00:25:00,72.3,54.1,30.20,SE,135,4.0,5.1,53,0.00,,,0.00,WUHU21636XXSP,2013-09-03 05:25:00,
2013-09-03 00:35:00,72.1,54.3,30.21,SSE,157,0.0,6.7,54,0.00,,,0.00,WUHU21636XXSP,2013-09-03 05:35:00,
2013-09-03 00:45:00,71.8,54.5,30.21,SE,135,3.5,9.6,55,0.00,,,0.00,WUHU21636XXSP,2013-09-03 05:45:00,
2013-09-03 00:55:00,71.4,54.3,30.21,SE,135,1.5,3.5,55,0.00,,,0.00,WUHU21636XXSP,2013-09-03 05:55:00,
2013-09-03 01:05:00,71.4,54.3,30.21,SE,135,4.9,4.9,55,0.00,,,0.00,WUHU21636XXSP,2013-09-03 06:05:00,
2013-09-03 01:15:00,71.2,54.1,30.21,SSE,157,3.1,4.9,55,0.00,,,0.00,WUHU21636XXSP,2013-09-03 06:15:00,
2013-09-03 01:25:00,71.1,54.0,30.21,SE,135,6.2,6.4,55,0.00,,,0.00,WUHU21636XXSP,2013-09-03 06:25:00,
2013-09-03 01:35:00,70.9,53.8,30.21,SSE,157,1.1,6.2,56,0.00,,,0.00,WUHU21636XXSP,2013-09-03 06:35:00,
2013-09-03 01:45:00,70.5,54.0,30.22,SSE,157,0.8,3.8,56,0.00,,,0.00,WUHU21636XXSP,2013-09-03 06:45:00,
2013-09-03 01:55:00,70.5,54.0,30.22,SSE,157,0.4,1.5,56,0.00,,,0.00,WUHU21636XXSP,2013-09-03 06:55:00,
2013-09-03 02:05:00,70.5,54.0,30.22,SSE,157,3.5,4.4,56,0.00,,,0.00,WUHU21636XXSP,2013-09-03 07:05:00,
2013-09-03 02:15:00,70.3,53.8,30.22,SSE,157,2.6,3.5,56,0.00,,,0.00,WUHU21636XXSP,2013-09-03 07:15:00,
2013-09-03 02:25:00,70.2,54.1,30.21,SSE,157,1.3,3.1,57,0.00,,,0.00,WUHU21636XXSP,2013-09-03 07:25:00,
2013-09-03 02:35:00,70.0,54.0,30.21,SE,135,0.0,5.1,57,0.00,,,0.00,WUHU21636XXSP,2013-09-03 07:35:00,
2013-09-03 02:45:00,69.6,53.6,30.21,SSE,157,0.0,3.5,57,0.00,,,0.00,WUHU21636XXSP,2013-09-03 07:45:00,
2013-09-03 02:55:00,69.6,54.1,30.21,SSE,157,4.0,4.0,58,0.00,,,0.00,WUHU21636XXSP,2013-09-03 07:55:00,
2013-09-03 03:05:00,69.3,54.3,30.21,South,180,4.2,10.2,59,0.00,,,0.00,WUHU21636XXSP,2013-09-03 08:05:00,
2013-09-03 03:15:00,69.1,54.1,30.21,South,180,4.0,9.3,59,0.00,,,0.00,WUHU21636XXSP,2013-09-03 08:15:00,
2013-09-03 03:25:00,68.7,54.3,30.21,South,180,7.6,10.0,60,0.00,,,0.00,WUHU21636XXSP,2013-09-03 08:25:00,
2013-09-03 03:35:00,68.7,54.3,30.21,South,180,3.3,7.6,60,0.00,,,0.00,WUHU21636XXSP,2013-09-03 08:35:00,
2013-09-03 03:45:00,68.5,54.1,30.21,South,180,5.3,5.3,60,0.00,,,0.00,WUHU21636XXSP,2013-09-03 08:45:00,
2013-09-03 03:55:00,68.4,54.3,30.21,South,180,1.5,5.3,61,0.00,,,0.00,WUHU21636XXSP,2013-09-03 08:55:00,
2013-09-03 04:05:00,68.5,54.5,30.21,South,180,0.6,1.5,60,0.00,,,0.00,WUHU21636XXSP,2013-09-03 09:05:00,
2013-09-03 04:15:00,68.5,54.5,30.21,South,180,0.0,4.9,61,0.00,,,0.00,WUHU21636XXSP,2013-09-03 09:15:00,
2013-09-03 04:25:00,68.4,54.3,30.21,South,180,3.3,3.3,61,0.00,,,0.00,WUHU21636XXSP,2013-09-03 09:25:00,
2013-09-03 04:36:00,68.0,54.0,30.21,South,180,1.3,4.0,61,0.00,,,0.00,WUHU21636XXSP,2013-09-03 09:36:00,
2013-09-03 04:46:00,67.6,54.0,30.21,SSW,202,3.3,4.9,62,0.00,,,0.00,WUHU21636XXSP,2013-09-03 09:46:00,
2013-09-03 04:56:00,67.6,54.0,30.21,South,180,3.1,5.1,62,0.00,,,0.00,WUHU21636XXSP,2013-09-03 09:56:00,
2013-09-03 05:06:00,67.6,54.0,30.21,SW,225,2.4,3.3,62,0.00,,,0.00,WUHU21636XXSP,2013-09-03 10:06:00,
2013-09-03 05:16:00,67.6,54.0,30.21,SSW,202,5.1,5.1,62,0.00,,,0.00,WUHU21636XXSP,2013-09-03 10:16:00,
2013-09-03 05:26:00,67.6,54.5,30.21,South,180,5.3,5.3,63,0.00,,,0.00,WUHU21636XXSP,2013-09-03 10:26:00,
2013-09-03 05:36:00,67.6,54.5,30.21,South,180,2.2,5.3,63,0.00,,,0.00,WUHU21636XXSP,2013-09-03 10:36:00,
2013-09-03 05:46:00,67.6,54.5,30.21,South,180,2.0,5.1,63,0.00,,,0.00,WUHU21636XXSP,2013-09-03 10:46:00,
2013-09-03 05:56:00,67.6,54.5,30.21,South,180,3.1,4.2,63,0.00,,,0.00,WUHU21636XXSP,2013-09-03 10:56:00,
2013-09-03 06:06:00,67.6,54.5,30.21,South,180,1.1,3.1,62,0.00,,,0.00,WUHU21636XXSP,2013-09-03 11:06:00,
2013-09-03 06:16:00,67.6,54.5,30.21,South,180,0.0,1.1,63,0.00,,,0.00,WUHU21636XXSP,2013-09-03 11:16:00,
2013-09-03 06:26:00,67.6,54.5,30.21,South,180,2.4,2.4,62,0.00,,,0.00,WUHU21636XXSP,2013-09-03 11:26:00,
2013-09-03 06:36:00,67.6,54.5,30.21,South,180,0.0,3.3,63,0.00,,,0.00,WUHU21636XXSP,2013-09-03 11:36:00,
2013-09-03 06:46:00,67.6,54.5,30.22,South,180,3.3,3.3,63,0.00,,,0.00,WUHU21636XXSP,2013-09-03 11:46:00,
2013-09-03 06:56:00,67.6,54.5,30.22,South,180,0.0,3.3,63,0.00,,,0.00,WUHU21636XXSP,2013-09-03 11:56:00,
2013-09-03 07:06:00,67.6,54.5,30.22,South,180,0.0,4.0,63,0.00,,,0.00,WUHU21636XXSP,2013-09-03 12:06:00,
2013-09-03 07:16:00,67.6,54.5,30.22,South,180,0.0,0.8,63,0.00,,,0.00,WUHU21636XXSP,2013-09-03 12:16:00,
2013-09-03 07:26:00,67.6,54.5,30.22,South,180,0.0,0.0,63,0.00,,,0.00,WUHU21636XXSP,2013-09-03 12:26:00,
2013-09-03 07:36:00,67.6,54.5,30.22,South,180,0.0,0.0,63,0.00,,,0.00,WUHU21636XXSP,2013-09-03 12:36:00,
2013-09-03 07:46:00,67.6,54.5,30.23,South,180,0.0,1.7,64,0.00,,,0.00,WUHU21636XXSP,2013-09-03 12:46:00,
2013-09-03 07:56:00,67.6,54.5,30.23,South,180,0.0,0.2,64,0.00,,,0.00,WUHU21636XXSP,2013-09-03 12:56:00,
2013-09-03 08:06:00,67.6,54.5,30.23,South,180,0.0,2.0,64,0.00,,,0.00,WUHU21636XXSP,2013-09-03 13:06:00,
2013-09-03 08:16:00,67.6,54.5,30.23,South,180,0.0,0.8,65,0.00,,,0.00,WUHU21636XXSP,2013-09-03 13:16:00,
2013-09-03 08:26:00,67.6,55.4,30.23,South,180,2.0,2.2,65,0.00,,,0.00,WUHU21636XXSP,2013-09-03 13:26:00,
2013-09-03 08:36:00,67.5,55.2,30.23,South,180,3.3,3.3,65,0.00,,,0.00,WUHU21636XXSP,2013-09-03 13:36:00,
2013-09-03 08:46:00,67.6,55.8,30.23,South,180,5.8,6.2,66,0.00,,,0.00,WUHU21636XXSP,2013-09-03 13:46:00,
2013-09-03 08:56:00,67.6,55.8,30.23,South,180,4.4,11.6,66,0.00,,,0.00,WUHU21636XXSP,2013-09-03 13:56:00,
2013-09-03 09:06:00,67.8,55.6,30.23,South,180,3.8,4.4,65,0.00,,,0.00,WUHU21636XXSP,2013-09-03 14:06:00,
2013-09-03 09:16:00,68.5,56.1,30.22,South,180,4.9,10.2,65,0.00,,,0.00,WUHU21636XXSP,2013-09-03 14:16:00,
2013-09-03 09:26:00,69.6,56.3,30.23,South,180,3.3,10.5,63,0.00,,,0.00,WUHU21636XXSP,2013-09-03 14:26:00,
2013-09-03 09:36:00,70.9,56.7,30.23,South,180,4.0,13.8,61,0.00,,,0.00,WUHU21636XXSP,2013-09-03 14:36:00,
2013-09-03 09:46:00,72.3,56.7,30.23,SW,225,6.0,14.0,58,0.00,,,0.00,WUHU21636XXSP,2013-09-03 14:46:00,
2013-09-03 09:56:00,73.2,57.4,30.23,South,180,2.9,10.0,58,0.00,,,0.00,WUHU21636XXSP,2013-09-03 14:56:00,
2013-09-03 10:06:00,74.1,56.3,30.23,South,180,6.7,13.6,54,0.00,,,0.00,WUHU21636XXSP,2013-09-03 15:06:00,
2013-09-03 10:16:00,75.2,56.3,30.23,SSW,202,4.9,17.0,52,0.00,,,0.00,WUHU21636XXSP,2013-09-03 15:16:00,
2013-09-03 10:26:00,76.3,55.8,30.24,SSE,157,6.9,12.5,49,0.00,,,0.00,WUHU21636XXSP,2013-09-03 15:26:00,
2013-09-03 10:36:00,77.7,55.2,30.23,SSW,202,12.5,18.3,46,0.00,,,0.00,WUHU21636XXSP,2013-09-03 15:36:00,
2013-09-03 10:46:00,78.4,54.0,30.23,SSW,202,12.9,23.0,42,0.00,,,0.00,WUHU21636XXSP,2013-09-03 15:46:00,
2013-09-03 10:56:00,79.3,54.1,30.23,South,180,7.6,19.9,42,0.00,,,0.00,WUHU21636XXSP,2013-09-03 15:56:00,
2013-09-03 11:06:00,80.2,53.8,30.23,SSW,202,13.6,22.5,40,0.00,,,0.00,WUHU21636XXSP,2013-09-03 16:06:00,
2013-09-03 11:16:00,81.1,53.8,30.23,SSW,202,12.0,23.4,39,0.00,,,0.00,WUHU21636XXSP,2013-09-03 16:16:00,
2013-09-03 11:26:00,82.0,52.2,30.22,South,180,17.2,24.1,36,0.00,,,0.00,WUHU21636XXSP,2013-09-03 16:26:00,
2013-09-03 11:36:00,82.8,52.9,30.23,SW,225,9.8,27.7,36,0.00,,,0.00,WUHU21636XXSP,2013-09-03 16:36:00,
2013-09-03 11:46:00,83.3,52.5,30.22,SW,225,16.7,24.6,35,0.00,,,0.00,WUHU21636XXSP,2013-09-03 16:46:00,
2013-09-03 11:56:00,83.8,53.1,30.22,SSW,202,12.9,22.5,35,0.00,,,0.00,WUHU21636XXSP,2013-09-03 16:56:00,
2013-09-03 12:06:00,84.4,54.3,30.21,South,180,11.6,19.2,36,0.00,,,0.00,WUHU21636XXSP,2013-09-03 17:06:00,
2013-09-03 12:16:00,84.7,55.4,30.21,SSW,202,15.6,23.9,37,0.00,,,0.00,WUHU21636XXSP,2013-09-03 17:16:00,
2013-09-03 12:26:00,85.3,55.9,30.21,SSW,202,11.8,21.4,37,0.00,,,0.00,WUHU21636XXSP,2013-09-03 17:26:00,
2013-09-03 12:36:00,85.6,55.4,30.21,SSW,202,14.3,23.4,36,0.00,,,0.00,WUHU21636XXSP,2013-09-03 17:36:00,
2013-09-03 12:46:00,86.2,56.7,30.20,South,180,10.5,25.5,37,0.00,,,0.00,WUHU21636XXSP,2013-09-03 17:46:00,
2013-09-03 12:56:00,86.7,56.3,30.20,SW,225,10.7,25.7,36,0.00,,,0.00,WUHU21636XXSP,2013-09-03 17:56:00,
2013-09-03 13:06:00,87.1,57.6,30.20,South,180,9.1,25.9,37,0.00,,,0.00,WUHU21636XXSP,2013-09-03 18:06:00,
2013-09-03 13:16:00,88.0,58.3,30.19,South,180,8.9,25.0,37,0.00,,,0.00,WUHU21636XXSP,2013-09-03 18:16:00,
2013-09-03 13:26:00,88.5,57.9,30.19,SSW,202,13.1,27.2,36,0.00,,,0.00,WUHU21636XXSP,2013-09-03 18:26:00,
2013-09-03 13:36:00,89.2,57.7,30.18,SSW,202,10.0,22.5,36,0.00,,,0.00,WUHU21636XXSP,2013-09-03 18:36:00,
2013-09-03 13:46:00,89.8,58.1,30.18,SSE,157,7.1,23.9,36,0.00,,,0.00,WUHU21636XXSP,2013-09-03 18:46:00,
2013-09-03 13:56:00,90.1,56.8,30.18,South,180,13.6,26.6,33,0.00,,,0.00,WUHU21636XXSP,2013-09-03 18:56:00,
2013-09-03 14:06:00,90.5,58.8,30.17,South,180,10.7,22.3,35,0.00,,,0.00,WUHU21636XXSP,2013-09-03 19:06:00,
2013-09-03 14:16:00,91.6,58.3,30.17,South,180,8.5,25.0,34,0.00,,,0.00,WUHU21636XXSP,2013-09-03 19:16:00,
2013-09-03 14:26:00,92.3,58.8,30.17,SSE,157,5.3,23.7,33,0.00,,,0.00,WUHU21636XXSP,2013-09-03 19:26:00,
2013-09-03 14:36:00,92.8,60.8,30.17,South,180,10.5,22.3,35,0.00,,,0.00,WUHU21636XXSP,2013-09-03 19:36:00,
2013-09-03 14:46:00,93.0,59.4,30.17,SSW,202,14.0,20.1,35,0.00,,,0.00,WUHU21636XXSP,2013-09-03 19:46:00,
2013-09-03 14:56:00,93.9,59.4,30.16,SSW,202,12.3,18.3,32,0.00,,,0.00,WUHU21636XXSP,2013-09-03 19:56:00,
2013-09-03 15:06:00,94.3,59.7,30.16,SSW,202,8.5,21.9,34,0.00,,,0.00,WUHU21636XXSP,2013-09-03 20:06:00,
2013-09-03 15:16:00,94.3,61.3,30.15,SSW,202,16.3,23.2,33,0.00,,,0.00,WUHU21636XXSP,2013-09-03 20:16:00,
2013-09-03 15:26:00,94.8,61.0,30.15,SSE,157,6.9,28.8,34,0.00,,,0.00,WUHU21636XXSP,2013-09-03 20:26:00,
2013-09-03 15:36:00,94.6,60.8,30.14,SW,225,15.8,23.7,33,0.00,,,0.00,WUHU21636XXSP,2013-09-03 20:36:00,
2013-09-03 15:46:00,95.2,63.0,30.14,South,180,9.8,23.7,34,0.00,,,0.00,WUHU21636XXSP,2013-09-03 20:46:00,
2013-09-03 15:56:00,95.7,61.7,30.14,South,180,11.6,26.6,33,0.00,,,0.00,WUHU21636XXSP,2013-09-03 20:56:00,
2013-09-03 16:06:00,95.9,61.9,30.14,South,180,8.2,27.2,33,0.00,,,0.00,WUHU21636XXSP,2013-09-03 21:06:00,
2013-09-03 16:16:00,96.4,61.5,30.13,SE,135,14.0,21.2,31,0.00,,,0.00,WUHU21636XXSP,2013-09-03 21:16:00,
2013-09-03 16:26:00,96.4,61.5,30.13,SSW,202,16.1,24.6,32,0.00,,,0.00,WUHU21636XXSP,2013-09-03 21:26:00,
2013-09-03 16:36:00,96.1,61.2,30.13,South,180,17.0,23.4,32,0.00,,,0.00,WUHU21636XXSP,2013-09-03 21:36:00,
2013-09-03 16:46:00,96.4,62.4,30.12,SSW,202,12.9,21.6,32,0.00,,,0.00,WUHU21636XXSP,2013-09-03 21:46:00,
2013-09-03 16:56:00,96.6,61.7,30.12,South,180,8.0,23.4,32,0.00,,,0.00,WUHU21636XXSP,2013-09-03 21:56:00,
2013-09-03 17:06:00,96.8,61.9,30.13,SSW,202,8.2,21.2,32,0.00,,,0.00,WUHU21636XXSP,2013-09-03 22:06:00,
2013-09-03 17:16:00,96.4,62.4,30.13,SSW,202,11.6,19.9,32,0.00,,,0.00,WUHU21636XXSP,2013-09-03 22:16:00,
2013-09-03 17:26:00,96.4,62.4,30.13,SSW,202,12.5,19.0,32,0.00,,,0.00,WUHU21636XXSP,2013-09-03 22:26:00,
2013-09-03 17:36:00,96.4,62.4,30.12,SSW,202,12.3,17.2,32,0.00,,,0.00,WUHU21636XXSP,2013-09-03 22:36:00,
2013-09-03 17:46:00,96.1,61.2,30.13,SE,135,2.6,20.8,32,0.00,,,0.00,WUHU21636XXSP,2013-09-03 22:46:00,
2013-09-03 17:56:00,95.5,60.8,30.13,SSW,202,10.7,18.7,32,0.00,,,0.00,WUHU21636XXSP,2013-09-03 22:56:00,
2013-09-03 18:06:00,95.2,60.4,30.12,SSW,202,8.7,23.7,33,0.00,,,0.00,WUHU21636XXSP,2013-09-03 23:06:00,
2013-09-03 18:16:00,94.8,61.9,30.12,South,180,8.9,21.4,33,0.00,,,0.00,WUHU21636XXSP,2013-09-03 23:16:00,
2013-09-03 18:26:00,94.3,61.3,30.12,SSE,157,9.6,17.6,34,0.00,,,0.00,WUHU21636XXSP,2013-09-03 23:26:00,
2013-09-03 18:36:00,93.9,61.0,30.12,South,180,8.2,20.8,34,0.00,,,0.00,WUHU21636XXSP,2013-09-03 23:36:00,
2013-09-03 18:46:00,93.7,60.8,30.12,South,180,7.1,19.2,34,0.00,,,0.00,WUHU21636XXSP,2013-09-03 23:46:00,
2013-09-03 18:56:00,92.8,60.8,30.11,SSW,202,9.6,19.6,35,0.00,,,0.00,WUHU21636XXSP,2013-09-03 23:56:00,
2013-09-03 19:06:00,91.9,60.1,30.12,South,180,5.5,24.6,35,0.00,,,0.00,WUHU21636XXSP,2013-09-04 00:06:00,
2013-09-03 19:16:00,91.6,59.7,30.11,South,180,10.9,20.8,35,0.00,,,0.00,WUHU21636XXSP,2013-09-04 00:16:00,
2013-09-03 19:26:00,90.7,59.7,30.11,South,180,8.2,21.2,36,0.00,,,0.00,WUHU21636XXSP,2013-09-04 00:26:00,
2013-09-03 19:36:00,90.3,59.5,30.11,South,180,12.3,19.6,36,0.00,,,0.00,WUHU21636XXSP,2013-09-04 00:36:00,
2013-09-03 19:46:00,90.0,59.2,30.11,SSW,202,9.1,22.3,36,0.00,,,0.00,WUHU21636XXSP,2013-09-04 00:46:00,
2013-09-03 19:56:00,89.2,59.4,30.11,SSE,157,5.1,17.0,37,0.00,,,0.00,WUHU21636XXSP,2013-09-04 00:56:00,
2013-09-03 20:06:00,88.7,58.8,30.12,South,180,2.6,8.7,38,0.00,,,0.00,WUHU21636XXSP,2013-09-04 01:06:00,
2013-09-03 20:16:00,88.2,59.2,30.12,SE,135,5.8,6.9,38,0.00,,,0.00,WUHU21636XXSP,2013-09-04 01:16:00,
2013-09-03 20:26:00,87.4,58.6,30.12,SE,135,4.6,11.1,38,0.00,,,0.00,WUHU21636XXSP,2013-09-04 01:26:00,
2013-09-03 20:36:00,87.1,59.0,30.13,ESE,112,3.3,8.5,39,0.00,,,0.00,WUHU21636XXSP,2013-09-04 01:36:00,
2013-09-03 20:47:00,86.4,59.9,30.13,SSE,157,4.4,9.3,41,0.00,,,0.00,WUHU21636XXSP,2013-09-04 01:47:00,
2013-09-03 20:57:00,85.8,59.4,30.14,SE,135,4.9,4.9,41,0.00,,,0.00,WUHU21636XXSP,2013-09-04 01:57:00,
2013-09-03 21:07:00,85.3,58.8,30.14,SSE,157,2.6,9.1,41,0.00,,,0.00,WUHU21636XXSP,2013-09-04 02:07:00,
2013-09-03 21:17:00,84.9,59.2,30.14,ESE,112,0.0,6.9,42,0.00,,,0.00,WUHU21636XXSP,2013-09-04 02:17:00,
2013-09-03 21:27:00,84.6,58.8,30.15,ESE,112,0.0,8.0,42,0.00,,,0.00,WUHU21636XXSP,2013-09-04 02:27:00,
2013-09-03 21:37:00,84.0,58.5,30.16,SE,135,0.0,10.9,42,0.00,,,0.00,WUHU21636XXSP,2013-09-04 02:37:00,
2013-09-03 21:47:00,83.8,58.8,30.16,SE,135,1.5,4.2,43,0.00,,,0.00,WUHU21636XXSP,2013-09-04 02:47:00,
2013-09-03 21:57:00,83.5,58.5,30.16,ESE,112,2.9,9.3,43,0.00,,,0.00,WUHU21636XXSP,2013-09-04 02:57:00,
2013-09-03 22:07:00,82.9,58.6,30.16,ESE,112,5.8,5.8,44,0.00,,,0.00,WUHU21636XXSP,2013-09-04 03:07:00,
2013-09-03 22:17:00,82.2,57.9,30.16,SE,135,7.3,11.4,44,0.00,,,0.00,WUHU21636XXSP,2013-09-04 03:17:00,
2013-09-03 22:27:00,81.9,57.6,30.16,SE,135,2.4,8.9,44,0.00,,,0.00,WUHU21636XXSP,2013-09-04 03:27:00,
2013-09-03 22:37:00,81.3,57.2,30.16,SE,135,5.1,11.4,44,0.00,,,0.00,WUHU21636XXSP,2013-09-04 03:37:00,
2013-09-03 22:47:00,81.0,56.8,30.17,SE,135,4.9,5.1,44,0.00,,,0.00,WUHU21636XXSP,2013-09-04 03:47:00,
2013-09-03 22:57:00,80.4,56.3,30.17,SE,135,2.0,4.9,44,0.00,,,0.00,WUHU21636XXSP,2013-09-04 03:57:00,
2013-09-03 23:07:00,80.2,56.1,30.18,ESE,112,4.0,5.3,44,0.00,,,0.00,WUHU21636XXSP,2013-09-04 04:07:00,
2013-09-03 23:17:00,79.7,55.8,30.18,ESE,112,6.0,11.1,44,0.00,,,0.00,WUHU21636XXSP,2013-09-04 04:17:00,
2013-09-03 23:27:00,79.3,55.4,30.17,ESE,112,2.4,15.8,44,0.00,,,0.00,WUHU21636XXSP,2013-09-04 04:27:00,
2013-09-03 23:37:00,79.0,55.6,30.18,ESE,112,1.3,3.5,45,0.00,,,0.00,WUHU21636XXSP,2013-09-04 04:37:00,
2013-09-03 23:47:00,78.6,55.4,30.19,SE,135,4.4,6.2,45,0.00,,,0.00,WUHU21636XXSP,2013-09-04 04:47:00,
2013-09-03 23:57:00,78.3,55.0,30.18,SE,135,4.6,8.9,45,0.00,,,0.00,WUHU21636XXSP,2013-09-04 04:57:00,